Time,TemperatureF,DewpointF,PressureIn,WindDirection,WindDirectionDegrees,WindSpeedMPH,WindSpeedGustMPH,Humidity,HourlyPrecipIn,Conditions,Clouds,dailyrainin,SoftwareType,DateUTC
2013-05-20 00:00:00,71.1,68.6,29.91,ENE,68,0.0,1.3,92,0.00,,---,0.00,VWS V14.01,2013-05-20 04:00:00,
2013-05-20 00:01:00,71.1,68.6,29.91,ENE,68,0.0,0.0,92,0.00,,---,0.00,VWS V14.01,2013-05-20 04:01:00,
2013-05-20 00:05:00,71.1,68.6,29.91,East,90,0.0,1.1,92,0.00,,---,0.00,VWS V14.01,2013-05-20 04:05:00,
2013-05-20 00:06:00,71.1,68.6,29.91,East,90,0.0,0.0,92,0.00,,---,0.00,VWS V14.01,2013-05-20 04:06:00,
2013-05-20 00:10:00,70.9,68.4,29.91,East,90,0.0,0.0,92,0.00,,---,0.00,VWS V14.01,2013-05-20 04:10:00,
2013-05-20 00:15:00,70.9,68.4,29.91,ENE,68,0.0,0.0,92,0.00,,---,0.00,VWS V14.01,2013-05-20 04:15:00,
2013-05-20 00:20:00,70.9,68.4,29.91,ENE,68,0.0,0.0,92,0.00,,---,0.00,VWS V14.01,2013-05-20 04:20:00,
2013-05-20 00:21:00,70.9,68.4,29.91,ENE,68,0.0,0.0,92,0.00,,---,0.00,VWS V14.01,2013-05-20 04:21:00,
2013-05-20 00:25:00,71.1,68.6,29.91,ENE,68,0.0,0.0,92,0.00,,---,0.00,VWS V14.01,2013-05-20 04:25:00,
2013-05-20 00:26:00,71.1,68.6,29.91,SSE,158,0.0,0.0,92,0.00,,---,0.00,VWS V14.01,2013-05-20 04:26:00,
2013-05-20 00:30:00,71.1,68.6,29.91,SSE,158,0.0,0.0,92,0.00,,---,0.00,VWS V14.01,2013-05-20 04:30:00,
2013-05-20 00:31:00,71.1,68.6,29.91,SSE,158,0.0,0.0,92,0.00,,---,0.00,VWS V14.01,2013-05-20 04:31:00,
2013-05-20 00:35:00,71.1,68.6,29.91,ESE,112,1.6,2.0,92,0.00,,---,0.00,VWS V14.01,2013-05-20 04:35:00,
2013-05-20 00:36:00,71.2,69.1,29.91,East,90,2.0,2.5,93,0.00,,---,0.00,VWS V14.01,2013-05-20 04:36:00,
2013-05-20 00:40:00,71.2,69.4,29.91,ENE,68,1.3,2.7,94,0.00,,---,0.00,VWS V14.01,2013-05-20 04:40:00,
2013-05-20 00:41:00,71.2,69.4,29.91,East,90,2.5,2.7,94,0.00,,---,0.00,VWS V14.01,2013-05-20 04:41:00,
2013-05-20 00:45:00,71.2,69.4,29.91,East,90,2.5,3.1,94,0.00,,---,0.00,VWS V14.01,2013-05-20 04:45:00,
2013-05-20 00:46:00,71.2,69.7,29.91,East,90,2.5,3.4,95,0.00,,---,0.00,VWS V14.01,2013-05-20 04:46:00,
2013-05-20 00:50:00,71.4,69.9,29.91,East,90,3.1,3.8,95,0.00,,---,0.00,VWS V14.01,2013-05-20 04:50:00,
2013-05-20 00:51:00,71.2,69.7,29.91,East,90,2.7,3.1,95,0.00,,---,0.00,VWS V14.01,2013-05-20 04:51:00,
2013-05-20 00:55:00,71.4,69.9,29.91,East,90,2.5,4.3,95,0.00,,---,0.00,VWS V14.01,2013-05-20 04:55:00,
2013-05-20 00:56:00,71.4,69.9,29.91,ENE,68,2.9,3.1,95,0.00,,---,0.00,VWS V14.01,2013-05-20 04:56:00,
2013-05-20 01:00:00,71.4,69.9,29.91,East,90,1.6,4.0,95,0.00,,---,0.00,VWS V14.01,2013-05-20 05:00:00,
2013-05-20 01:01:00,71.4,69.6,29.88,East,90,1.6,3.6,94,0.00,,---,0.00,VWS V14.01,2013-05-20 05:01:00,
2013-05-20 01:05:00,71.4,69.6,29.88,ESE,112,2.5,3.6,94,0.00,,---,0.00,VWS V14.01,2013-05-20 05:05:00,
2013-05-20 01:06:00,71.4,69.6,29.88,ESE,112,3.1,3.1,94,0.00,,---,0.00,VWS V14.01,2013-05-20 05:06:00,
2013-05-20 01:10:00,71.4,69.6,29.88,East,90,1.1,3.1,94,0.00,,---,0.00,VWS V14.01,2013-05-20 05:10:00,
2013-05-20 01:11:00,71.4,69.6,29.88,East,90,1.6,2.9,94,0.00,,---,0.00,VWS V14.01,2013-05-20 05:11:00,
2013-05-20 01:15:00,71.4,69.3,29.88,ESE,112,1.1,3.8,93,0.00,,---,0.00,VWS V14.01,2013-05-20 05:15:00,
2013-05-20 01:16:00,71.4,69.3,29.88,ESE,112,0.0,1.1,93,0.00,,---,0.00,VWS V14.01,2013-05-20 05:16:00,
2013-05-20 01:20:00,71.2,69.1,29.88,ENE,68,1.3,1.3,93,0.00,,---,0.00,VWS V14.01,2013-05-20 05:20:00,
2013-05-20 01:21:00,71.2,69.1,29.88,ENE,68,0.9,1.3,93,0.00,,---,0.00,VWS V14.01,2013-05-20 05:21:00,
2013-05-20 01:25:00,71.1,68.6,29.88,ENE,68,1.3,2.0,92,0.00,,---,0.00,VWS V14.01,2013-05-20 05:25:00,
2013-05-20 01:26:00,71.1,68.6,29.88,ENE,68,0.0,1.3,92,0.00,,---,0.00,VWS V14.01,2013-05-20 05:26:00,
2013-05-20 01:30:00,71.1,68.6,29.88,East,90,0.0,1.3,92,0.00,,---,0.00,VWS V14.01,2013-05-20 05:30:00,
2013-05-20 01:31:00,70.9,68.4,29.88,East,90,0.0,0.0,92,0.00,,---,0.00,VWS V14.01,2013-05-20 05:31:00,
2013-05-20 01:35:00,70.9,68.4,29.88,East,90,0.0,0.0,92,0.00,,---,0.00,VWS V14.01,2013-05-20 05:35:00,
2013-05-20 01:36:00,70.9,68.4,29.88,East,90,0.0,0.0,92,0.00,,---,0.00,VWS V14.01,2013-05-20 05:36:00,
2013-05-20 01:40:00,70.9,68.4,29.88,East,90,0.0,0.0,92,0.00,,---,0.00,VWS V14.01,2013-05-20 05:40:00,
2013-05-20 01:41:00,70.7,68.3,29.88,East,90,0.0,0.0,92,0.00,,---,0.00,VWS V14.01,2013-05-20 05:41:00,
2013-05-20 01:45:00,70.7,68.3,29.88,East,90,0.0,0.0,92,0.00,,---,0.00,VWS V14.01,2013-05-20 05:45:00,
2013-05-20 01:46:00,70.7,68.3,29.88,East,90,0.0,0.0,92,0.00,,---,0.00,VWS V14.01,2013-05-20 05:46:00,
2013-05-20 01:50:00,70.7,68.3,29.88,East,90,0.0,0.0,92,0.00,,---,0.00,VWS V14.01,2013-05-20 05:50:00,
2013-05-20 01:51:00,70.5,68.1,29.88,East,90,0.0,0.0,92,0.00,,---,0.00,VWS V14.01,2013-05-20 05:51:00,
2013-05-20 01:55:00,70.3,67.9,29.88,East,90,0.0,0.0,92,0.00,,---,0.00,VWS V14.01,2013-05-20 05:55:00,
2013-05-20 01:56:00,70.3,67.9,29.88,East,90,0.0,0.0,92,0.00,,---,0.00,VWS V14.01,2013-05-20 05:56:00,
2013-05-20 02:00:00,70.3,67.9,29.88,East,90,0.0,0.0,92,0.00,,---,0.00,VWS V14.01,2013-05-20 06:00:00,
2013-05-20 02:01:00,70.3,67.9,29.88,East,90,0.0,0.0,92,0.00,,---,0.00,VWS V14.01,2013-05-20 06:01:00,
2013-05-20 02:05:00,70.2,67.7,29.88,East,90,0.0,0.0,92,0.00,,---,0.00,VWS V14.01,2013-05-20 06:05:00,
2013-05-20 02:06:00,70.2,67.7,29.88,East,90,0.0,0.0,92,0.00,,---,0.00,VWS V14.01,2013-05-20 06:06:00,
2013-05-20 02:10:00,70.2,67.7,29.88,East,90,0.0,0.0,92,0.00,,---,0.00,VWS V14.01,2013-05-20 06:10:00,
2013-05-20 02:11:00,70.2,67.7,29.88,East,90,0.0,0.0,92,0.00,,---,0.00,VWS V14.01,2013-05-20 06:11:00,
2013-05-20 02:15:00,70.3,67.9,29.88,East,90,0.0,0.0,92,0.00,,---,0.00,VWS V14.01,2013-05-20 06:15:00,
2013-05-20 02:16:00,70.3,68.2,29.85,East,90,0.0,0.0,93,0.00,,---,0.00,VWS V14.01,2013-05-20 06:16:00,
2013-05-20 02:20:00,70.3,68.2,29.85,East,90,0.0,0.0,93,0.00,,---,0.00,VWS V14.01,2013-05-20 06:20:00,
2013-05-20 02:21:00,70.2,68.1,29.85,East,90,0.0,0.0,93,0.00,,---,0.00,VWS V14.01,2013-05-20 06:21:00,
2013-05-20 02:25:00,70.2,67.7,29.85,East,90,0.0,0.0,92,0.00,,---,0.00,VWS V14.01,2013-05-20 06:25:00,
2013-05-20 02:26:00,70.2,67.7,29.85,East,90,0.0,0.0,92,0.00,,---,0.00,VWS V14.01,2013-05-20 06:26:00,
2013-05-20 02:30:00,70.0,67.6,29.85,East,90,0.0,0.0,92,0.00,,---,0.00,VWS V14.01,2013-05-20 06:30:00,
2013-05-20 02:31:00,70.0,67.6,29.85,East,90,0.0,0.0,92,0.00,,---,0.00,VWS V14.01,2013-05-20 06:31:00,
2013-05-20 02:35:00,70.0,67.6,29.85,East,90,0.0,0.0,92,0.00,,---,0.00,VWS V14.01,2013-05-20 06:35:00,
2013-05-20 02:36:00,70.0,67.6,29.85,East,90,0.0,0.0,92,0.00,,---,0.00,VWS V14.01,2013-05-20 06:36:00,
2013-05-20 02:40:00,70.0,67.6,29.85,East,90,0.0,0.0,92,0.00,,---,0.00,VWS V14.01,2013-05-20 06:40:00,
2013-05-20 02:41:00,70.0,67.6,29.85,East,90,0.0,0.0,92,0.00,,---,0.00,VWS V14.01,2013-05-20 06:41:00,
2013-05-20 02:45:00,70.0,67.6,29.85,East,90,0.0,0.0,92,0.00,,---,0.00,VWS V14.01,2013-05-20 06:45:00,
2013-05-20 02:46:00,70.0,67.6,29.85,East,90,0.0,0.0,92,0.00,,---,0.00,VWS V14.01,2013-05-20 06:46:00,
2013-05-20 02:50:00,70.0,67.9,29.85,East,90,0.0,0.0,93,0.00,,---,0.00,VWS V14.01,2013-05-20 06:50:00,
2013-05-20 02:51:00,70.0,67.9,29.85,East,90,0.0,0.0,93,0.00,,---,0.00,VWS V14.01,2013-05-20 06:51:00,
2013-05-20 02:55:00,70.0,67.9,29.85,East,90,0.0,0.0,93,0.00,,---,0.00,VWS V14.01,2013-05-20 06:55:00,
2013-05-20 02:56:00,70.0,67.9,29.85,East,90,0.0,0.0,93,0.00,,---,0.00,VWS V14.01,2013-05-20 06:56:00,
2013-05-20 03:00:00,70.0,67.9,29.85,East,90,0.0,0.9,93,0.00,,---,0.00,VWS V14.01,2013-05-20 07:00:00,
2013-05-20 03:01:00,70.0,67.9,29.85,East,90,1.3,1.3,93,0.00,,---,0.00,VWS V14.01,2013-05-20 07:01:00,
2013-05-20 03:05:00,70.2,68.1,29.85,East,90,0.0,1.3,93,0.00,,---,0.00,VWS V14.01,2013-05-20 07:05:00,
2013-05-20 03:06:00,70.0,67.9,29.85,East,90,0.0,0.0,93,0.00,,---,0.00,VWS V14.01,2013-05-20 07:06:00,
2013-05-20 03:10:00,70.0,67.9,29.85,East,90,1.1,1.3,93,0.00,,---,0.00,VWS V14.01,2013-05-20 07:10:00,
2013-05-20 03:11:00,70.2,68.1,29.85,East,90,0.0,1.1,93,0.00,,---,0.00,VWS V14.01,2013-05-20 07:11:00,
2013-05-20 03:15:00,70.2,68.1,29.85,East,90,0.0,1.1,93,0.00,,---,0.00,VWS V14.01,2013-05-20 07:15:00,
2013-05-20 03:16:00,70.2,68.1,29.82,East,90,0.0,0.0,93,0.00,,---,0.00,VWS V14.01,2013-05-20 07:16:00,
2013-05-20 03:20:00,70.0,67.9,29.82,East,90,0.0,0.0,93,0.00,,---,0.00,VWS V14.01,2013-05-20 07:20:00,
2013-05-20 03:21:00,70.2,68.1,29.82,East,90,0.0,0.0,93,0.00,,---,0.00,VWS V14.01,2013-05-20 07:21:00,
2013-05-20 03:25:00,70.2,68.1,29.82,East,90,0.0,0.0,93,0.00,,---,0.00,VWS V14.01,2013-05-20 07:25:00,
2013-05-20 03:27:00,70.2,68.1,29.82,East,90,0.0,0.0,93,0.00,,---,0.00,VWS V14.01,2013-05-20 07:27:00,
2013-05-20 03:30:00,70.2,68.1,29.82,East,90,0.0,0.0,93,0.00,,---,0.00,VWS V14.01,2013-05-20 07:30:00,
2013-05-20 03:32:00,70.0,67.9,29.82,East,90,0.0,0.0,93,0.00,,---,0.00,VWS V14.01,2013-05-20 07:32:00,
2013-05-20 03:35:00,70.0,67.9,29.82,East,90,0.0,0.0,93,0.00,,---,0.00,VWS V14.01,2013-05-20 07:35:00,
2013-05-20 03:37:00,70.0,67.9,29.82,East,90,0.0,0.0,93,0.00,,---,0.00,VWS V14.01,2013-05-20 07:37:00,
2013-05-20 03:40:00,70.0,67.9,29.82,East,90,0.0,0.0,93,0.00,,---,0.00,VWS V14.01,2013-05-20 07:40:00,
2013-05-20 03:42:00,70.0,67.9,29.82,East,90,0.0,0.0,93,0.00,,---,0.00,VWS V14.01,2013-05-20 07:42:00,
2013-05-20 03:45:00,69.8,67.7,29.82,East,90,0.0,0.0,93,0.00,,---,0.00,VWS V14.01,2013-05-20 07:45:00,
2013-05-20 03:47:00,69.8,67.7,29.82,East,90,1.1,1.3,93,0.00,,---,0.00,VWS V14.01,2013-05-20 07:47:00,
2013-05-20 03:50:00,69.8,67.7,29.82,East,90,0.0,1.3,93,0.00,,---,0.00,VWS V14.01,2013-05-20 07:50:00,
2013-05-20 03:52:00,69.8,67.7,29.82,East,90,0.0,0.0,93,0.00,,---,0.00,VWS V14.01,2013-05-20 07:52:00,
2013-05-20 03:55:00,69.8,67.7,29.82,East,90,0.0,0.0,93,0.00,,---,0.00,VWS V14.01,2013-05-20 07:55:00,
2013-05-20 03:57:00,69.8,67.7,29.82,East,90,0.0,0.0,93,0.00,,---,0.00,VWS V14.01,2013-05-20 07:57:00,
2013-05-20 04:00:00,69.6,67.5,29.82,East,90,0.0,0.0,93,0.00,,---,0.00,VWS V14.01,2013-05-20 08:00:00,
2013-05-20 04:02:00,69.6,67.5,29.85,East,90,0.0,0.0,93,0.00,,---,0.00,VWS V14.01,2013-05-20 08:02:00,
2013-05-20 04:05:00,69.6,67.5,29.85,East,90,0.0,0.0,93,0.00,,---,0.00,VWS V14.01,2013-05-20 08:05:00,
2013-05-20 04:07:00,69.8,67.7,29.85,East,90,0.0,0.0,93,0.00,,---,0.00,VWS V14.01,2013-05-20 08:07:00,
2013-05-20 04:10:00,69.6,67.8,29.85,East,90,0.0,0.0,94,0.00,,---,0.00,VWS V14.01,2013-05-20 08:10:00,
2013-05-20 04:12:00,69.6,67.8,29.85,ENE,68,0.0,0.0,94,0.00,,---,0.00,VWS V14.01,2013-05-20 08:12:00,
2013-05-20 04:15:00,69.6,67.8,29.85,ENE,68,0.0,0.0,94,0.00,,---,0.00,VWS V14.01,2013-05-20 08:15:00,
2013-05-20 04:17:00,69.6,67.8,29.82,ENE,68,0.0,0.0,94,0.00,,---,0.00,VWS V14.01,2013-05-20 08:17:00,
2013-05-20 04:20:00,69.8,67.7,29.82,ENE,68,0.0,0.0,93,0.00,,---,0.00,VWS V14.01,2013-05-20 08:20:00,
2013-05-20 04:22:00,69.8,67.7,29.82,ENE,68,0.0,0.0,93,0.00,,---,0.00,VWS V14.01,2013-05-20 08:22:00,
2013-05-20 04:25:00,69.6,67.8,29.82,ENE,68,0.0,0.0,94,0.00,,---,0.00,VWS V14.01,2013-05-20 08:25:00,
2013-05-20 04:27:00,69.6,67.8,29.82,ENE,68,0.0,0.0,94,0.00,,---,0.00,VWS V14.01,2013-05-20 08:27:00,
2013-05-20 04:30:00,69.6,67.8,29.82,ENE,68,0.0,0.0,94,0.00,,---,0.00,VWS V14.01,2013-05-20 08:30:00,
2013-05-20 04:32:00,69.6,67.8,29.85,ENE,68,0.0,0.0,94,0.00,,---,0.00,VWS V14.01,2013-05-20 08:32:00,
2013-05-20 04:35:00,69.6,67.8,29.85,ENE,68,0.0,0.0,94,0.00,,---,0.00,VWS V14.01,2013-05-20 08:35:00,
2013-05-20 04:37:00,69.6,67.8,29.85,ENE,68,0.0,0.0,94,0.00,,---,0.00,VWS V14.01,2013-05-20 08:37:00,
2013-05-20 04:40:00,69.6,67.8,29.85,ENE,68,0.0,0.0,94,0.00,,---,0.00,VWS V14.01,2013-05-20 08:40:00,
2013-05-20 04:42:00,69.6,67.8,29.85,ENE,68,0.0,0.0,94,0.00,,---,0.00,VWS V14.01,2013-05-20 08:42:00,
2013-05-20 04:45:00,69.6,67.8,29.85,ENE,68,0.0,0.0,94,0.00,,---,0.00,VWS V14.01,2013-05-20 08:45:00,
2013-05-20 04:47:00,69.6,67.8,29.85,ENE,68,0.0,0.0,94,0.00,,---,0.00,VWS V14.01,2013-05-20 08:47:00,
2013-05-20 04:50:00,69.6,67.8,29.85,ENE,68,0.0,0.0,94,0.00,,---,0.00,VWS V14.01,2013-05-20 08:50:00,
2013-05-20 04:52:00,69.6,67.8,29.85,ENE,68,0.0,0.0,94,0.00,,---,0.00,VWS V14.01,2013-05-20 08:52:00,
2013-05-20 04:55:00,69.4,67.6,29.85,ENE,68,0.0,0.0,94,0.00,,---,0.00,VWS V14.01,2013-05-20 08:55:00,
2013-05-20 04:57:00,69.4,67.6,29.85,ENE,68,0.0,0.0,94,0.00,,---,0.00,VWS V14.01,2013-05-20 08:57:00,
2013-05-20 05:00:00,69.4,67.6,29.85,ENE,68,0.0,0.0,94,0.00,,---,0.00,VWS V14.01,2013-05-20 09:00:00,
2013-05-20 05:02:00,69.4,67.6,29.85,ENE,68,0.0,0.0,94,0.00,,---,0.00,VWS V14.01,2013-05-20 09:02:00,
2013-05-20 05:05:00,69.4,67.6,29.85,ENE,68,0.0,0.0,94,0.00,,---,0.00,VWS V14.01,2013-05-20 09:05:00,
2013-05-20 05:07:00,69.4,67.6,29.85,ENE,68,0.0,0.0,94,0.00,,---,0.00,VWS V14.01,2013-05-20 09:07:00,
2013-05-20 05:10:00,69.4,67.6,29.85,ENE,68,0.0,0.0,94,0.00,,---,0.00,VWS V14.01,2013-05-20 09:10:00,
2013-05-20 05:12:00,69.4,67.6,29.85,ENE,68,0.0,0.0,94,0.00,,---,0.00,VWS V14.01,2013-05-20 09:12:00,
2013-05-20 05:15:00,69.3,67.5,29.85,ENE,68,0.0,0.0,94,0.00,,---,0.00,VWS V14.01,2013-05-20 09:15:00,
2013-05-20 05:17:00,69.3,67.5,29.85,ENE,68,0.0,0.0,94,0.00,,---,0.00,VWS V14.01,2013-05-20 09:17:00,
2013-05-20 05:20:00,69.3,67.5,29.85,ENE,68,0.0,0.0,94,0.00,,---,0.00,VWS V14.01,2013-05-20 09:20:00,
2013-05-20 05:22:00,69.3,67.5,29.85,ENE,68,0.0,0.0,94,0.00,,---,0.00,VWS V14.01,2013-05-20 09:22:00,
2013-05-20 05:25:00,69.1,67.3,29.85,ENE,68,0.0,0.0,94,0.00,,---,0.00,VWS V14.01,2013-05-20 09:25:00,
2013-05-20 05:27:00,69.1,67.3,29.85,ENE,68,0.0,0.0,94,0.00,,---,0.00,VWS V14.01,2013-05-20 09:27:00,
2013-05-20 05:30:00,69.1,67.3,29.85,ENE,68,0.0,0.0,94,0.00,,---,0.00,VWS V14.01,2013-05-20 09:30:00,
2013-05-20 05:32:00,69.1,67.3,29.85,ENE,68,0.0,0.0,94,0.00,,---,0.00,VWS V14.01,2013-05-20 09:32:00,
2013-05-20 05:35:00,69.1,67.3,29.85,ENE,68,0.0,0.0,94,0.00,,---,0.00,VWS V14.01,2013-05-20 09:35:00,
2013-05-20 05:37:00,69.1,67.3,29.85,ENE,68,0.0,0.0,94,0.00,,---,0.00,VWS V14.01,2013-05-20 09:37:00,
2013-05-20 05:40:00,69.1,67.3,29.85,ENE,68,0.0,0.0,94,0.00,,---,0.00,VWS V14.01,2013-05-20 09:40:00,
2013-05-20 05:42:00,69.1,67.6,29.85,ENE,68,0.0,0.0,95,0.00,,---,0.00,VWS V14.01,2013-05-20 09:42:00,
2013-05-20 05:45:00,69.1,67.3,29.85,ENE,68,0.0,0.0,94,0.00,,---,0.00,VWS V14.01,2013-05-20 09:45:00,
2013-05-20 05:47:00,69.1,67.6,29.85,ENE,68,0.0,0.0,95,0.00,,---,0.00,VWS V14.01,2013-05-20 09:47:00,
2013-05-20 05:50:00,69.1,67.6,29.85,ENE,68,0.0,0.0,95,0.00,,---,0.00,VWS V14.01,2013-05-20 09:50:00,
2013-05-20 05:52:00,69.1,67.6,29.85,ENE,68,0.0,0.0,95,0.00,,---,0.00,VWS V14.01,2013-05-20 09:52:00,
2013-05-20 05:55:00,68.9,67.4,29.85,ENE,68,0.0,0.0,95,0.00,,---,0.00,VWS V14.01,2013-05-20 09:55:00,
2013-05-20 05:57:00,68.9,67.4,29.85,ENE,68,0.0,0.0,95,0.00,,---,0.00,VWS V14.01,2013-05-20 09:57:00,
2013-05-20 06:00:00,68.9,67.4,29.85,ENE,68,0.0,0.0,95,0.00,,---,0.00,VWS V14.01,2013-05-20 10:00:00,
2013-05-20 06:02:00,68.7,67.2,29.85,ENE,68,1.1,1.1,95,0.00,,---,0.00,VWS V14.01,2013-05-20 10:02:00,
2013-05-20 06:05:00,68.9,67.4,29.85,ENE,68,0.0,1.3,95,0.00,,---,0.00,VWS V14.01,2013-05-20 10:05:00,
2013-05-20 06:07:00,68.9,67.4,29.85,ENE,68,0.0,0.0,95,0.00,,---,0.00,VWS V14.01,2013-05-20 10:07:00,
2013-05-20 06:10:00,68.9,67.4,29.85,ENE,68,0.0,0.0,95,0.00,,---,0.00,VWS V14.01,2013-05-20 10:10:00,
2013-05-20 06:12:00,68.9,67.4,29.85,ENE,68,0.0,0.0,95,0.00,,---,0.00,VWS V14.01,2013-05-20 10:12:00,
2013-05-20 06:15:00,68.7,67.2,29.85,ENE,68,0.0,0.0,95,0.00,,---,0.00,VWS V14.01,2013-05-20 10:15:00,
2013-05-20 06:17:00,68.7,67.2,29.85,ENE,68,0.0,0.0,95,0.00,,---,0.00,VWS V14.01,2013-05-20 10:17:00,
2013-05-20 06:20:00,68.5,67.1,29.85,ENE,68,0.0,0.0,95,0.00,,---,0.00,VWS V14.01,2013-05-20 10:20:00,
2013-05-20 06:22:00,68.7,67.2,29.85,ENE,68,0.0,0.0,95,0.00,,---,0.00,VWS V14.01,2013-05-20 10:22:00,
2013-05-20 06:25:00,68.5,67.1,29.85,ENE,68,0.0,0.0,95,0.00,,---,0.00,VWS V14.01,2013-05-20 10:25:00,
2013-05-20 06:27:00,68.5,67.1,29.85,ENE,68,0.0,0.0,95,0.00,,---,0.00,VWS V14.01,2013-05-20 10:27:00,
2013-05-20 06:30:00,68.5,67.1,29.85,ENE,68,0.0,0.0,95,0.00,,---,0.00,VWS V14.01,2013-05-20 10:30:00,
2013-05-20 06:32:00,68.5,67.1,29.85,ENE,68,0.0,0.0,95,0.00,,---,0.00,VWS V14.01,2013-05-20 10:32:00,
2013-05-20 06:35:00,68.5,67.1,29.85,ENE,68,0.0,0.0,95,0.00,,---,0.00,VWS V14.01,2013-05-20 10:35:00,
2013-05-20 06:37:00,68.5,67.1,29.85,ENE,68,0.0,0.0,95,0.00,,---,0.00,VWS V14.01,2013-05-20 10:37:00,
2013-05-20 06:40:00,68.5,67.1,29.85,ENE,68,0.0,0.0,95,0.00,,---,0.00,VWS V14.01,2013-05-20 10:40:00,
2013-05-20 06:42:00,68.5,67.1,29.85,ENE,68,0.0,0.0,95,0.00,,---,0.00,VWS V14.01,2013-05-20 10:42:00,
2013-05-20 06:45:00,68.5,67.1,29.85,ENE,68,0.0,0.0,95,0.00,,---,0.00,VWS V14.01,2013-05-20 10:45:00,
2013-05-20 06:47:00,68.5,67.1,29.85,ENE,68,0.0,0.0,95,0.00,,---,0.00,VWS V14.01,2013-05-20 10:47:00,
2013-05-20 06:50:00,68.5,67.1,29.85,ENE,68,0.0,0.0,95,0.00,,---,0.00,VWS V14.01,2013-05-20 10:50:00,
2013-05-20 06:52:00,68.5,67.1,29.85,ENE,68,0.0,0.0,95,0.00,,---,0.00,VWS V14.01,2013-05-20 10:52:00,
2013-05-20 06:55:00,68.7,67.2,29.85,ENE,68,0.0,0.0,95,0.00,,---,0.00,VWS V14.01,2013-05-20 10:55:00,
2013-05-20 06:57:00,68.7,67.5,29.85,ENE,68,0.0,0.0,96,0.00,,---,0.00,VWS V14.01,2013-05-20 10:57:00,
2013-05-20 07:00:00,68.9,67.7,29.85,ENE,68,0.0,0.0,96,0.00,,---,0.00,VWS V14.01,2013-05-20 11:00:00,
2013-05-20 07:02:00,69.1,67.9,29.88,ENE,68,0.0,0.0,96,0.00,,---,0.00,VWS V14.01,2013-05-20 11:02:00,
2013-05-20 07:05:00,69.1,67.9,29.88,ENE,68,0.0,0.0,96,0.00,,---,0.00,VWS V14.01,2013-05-20 11:05:00,
2013-05-20 07:07:00,69.3,68.1,29.88,ENE,68,0.0,0.0,96,0.00,,---,0.00,VWS V14.01,2013-05-20 11:07:00,
2013-05-20 07:10:00,69.3,68.1,29.88,ENE,68,0.0,0.0,96,0.00,,---,0.00,VWS V14.01,2013-05-20 11:10:00,
2013-05-20 07:12:00,69.3,68.1,29.88,ENE,68,0.0,0.0,96,0.00,,---,0.00,VWS V14.01,2013-05-20 11:12:00,
2013-05-20 07:15:00,69.4,68.2,29.88,ENE,68,0.0,0.0,96,0.00,,---,0.00,VWS V14.01,2013-05-20 11:15:00,
2013-05-20 07:17:00,69.4,68.2,29.88,ENE,68,0.0,0.0,96,0.00,,---,0.00,VWS V14.01,2013-05-20 11:17:00,
2013-05-20 07:20:00,69.6,68.4,29.88,ENE,68,0.0,0.0,96,0.00,,---,0.00,VWS V14.01,2013-05-20 11:20:00,
2013-05-20 07:22:00,69.6,68.4,29.88,ENE,68,0.0,0.0,96,0.00,,---,0.00,VWS V14.01,2013-05-20 11:22:00,
2013-05-20 07:25:00,69.8,68.6,29.88,ENE,68,0.0,0.0,96,0.00,,---,0.00,VWS V14.01,2013-05-20 11:25:00,
2013-05-20 07:27:00,70.0,68.8,29.88,ENE,68,0.0,0.0,96,0.00,,---,0.00,VWS V14.01,2013-05-20 11:27:00,
2013-05-20 07:30:00,70.2,69.0,29.88,ENE,68,0.0,0.0,96,0.00,,---,0.00,VWS V14.01,2013-05-20 11:30:00,
2013-05-20 07:32:00,70.2,69.0,29.88,ENE,68,0.0,0.0,96,0.00,,---,0.00,VWS V14.01,2013-05-20 11:32:00,
2013-05-20 07:35:00,70.3,69.2,29.88,ENE,68,0.0,0.0,96,0.00,,---,0.00,VWS V14.01,2013-05-20 11:35:00,
2013-05-20 07:37:00,70.5,69.3,29.88,ENE,68,0.0,0.0,96,0.00,,---,0.00,VWS V14.01,2013-05-20 11:37:00,
2013-05-20 07:40:00,70.7,69.5,29.88,East,90,1.3,2.0,96,0.00,,---,0.00,VWS V14.01,2013-05-20 11:40:00,
2013-05-20 07:42:00,70.9,69.7,29.88,East,90,1.1,2.7,96,0.00,,---,0.00,VWS V14.01,2013-05-20 11:42:00,
2013-05-20 07:45:00,71.1,69.9,29.88,East,90,0.9,2.7,96,0.00,,---,0.00,VWS V14.01,2013-05-20 11:45:00,
2013-05-20 07:47:00,71.1,69.6,29.88,East,90,0.0,0.9,95,0.00,,---,0.00,VWS V14.01,2013-05-20 11:47:00,
2013-05-20 07:50:00,71.2,69.7,29.88,East,90,0.0,0.9,95,0.00,,---,0.00,VWS V14.01,2013-05-20 11:50:00,
2013-05-20 07:52:00,71.4,69.9,29.88,East,90,0.0,0.0,95,0.00,,---,0.00,VWS V14.01,2013-05-20 11:52:00,
2013-05-20 07:55:00,71.6,70.1,29.88,ENE,68,0.0,0.0,95,0.00,,---,0.00,VWS V14.01,2013-05-20 11:55:00,
2013-05-20 07:57:00,71.6,70.1,29.88,ENE,68,0.0,1.1,95,0.00,,---,0.00,VWS V14.01,2013-05-20 11:57:00,
2013-05-20 08:00:00,71.8,70.0,29.88,ENE,68,0.9,1.1,94,0.00,,---,0.00,VWS V14.01,2013-05-20 12:00:00,
2013-05-20 08:02:00,72.0,70.1,29.88,East,90,2.5,2.5,94,0.00,,---,0.00,VWS V14.01,2013-05-20 12:02:00,
2013-05-20 08:05:00,72.3,70.5,29.88,East,90,1.6,2.9,94,0.00,,---,0.00,VWS V14.01,2013-05-20 12:05:00,
2013-05-20 08:07:00,72.5,70.7,29.88,East,90,1.1,2.2,94,0.00,,---,0.00,VWS V14.01,2013-05-20 12:07:00,
2013-05-20 08:10:00,73.2,71.4,29.88,East,90,1.1,2.2,94,0.00,,---,0.00,VWS V14.01,2013-05-20 12:10:00,
2013-05-20 08:12:00,73.6,71.8,29.88,ESE,112,2.2,2.5,94,0.00,,---,0.00,VWS V14.01,2013-05-20 12:12:00,
2013-05-20 08:15:00,74.1,72.0,29.88,East,90,2.5,2.5,93,0.00,,---,0.00,VWS V14.01,2013-05-20 12:15:00,
2013-05-20 08:17:00,74.8,72.0,29.88,East,90,2.5,3.6,91,0.00,,---,0.00,VWS V14.01,2013-05-20 12:17:00,
2013-05-20 08:20:00,75.4,70.9,29.88,East,90,2.5,4.0,86,0.00,,---,0.00,VWS V14.01,2013-05-20 12:20:00,
2013-05-20 08:22:00,75.7,71.6,29.88,ENE,68,2.0,3.1,87,0.00,,---,0.00,VWS V14.01,2013-05-20 12:22:00,
2013-05-20 08:25:00,76.5,72.7,29.88,SE,135,0.0,3.1,88,0.00,,---,0.00,VWS V14.01,2013-05-20 12:25:00,
2013-05-20 08:27:00,77.0,73.2,29.88,SSE,158,0.0,0.0,88,0.00,,---,0.00,VWS V14.01,2013-05-20 12:27:00,
2013-05-20 08:30:00,77.0,72.5,29.88,East,90,1.6,2.0,86,0.00,,---,0.00,VWS V14.01,2013-05-20 12:30:00,
2013-05-20 08:32:00,77.0,71.8,29.88,ENE,68,1.1,2.0,84,0.00,,---,0.00,VWS V14.01,2013-05-20 12:32:00,
2013-05-20 08:35:00,77.4,71.1,29.88,SE,135,2.5,3.4,81,0.00,,---,0.00,VWS V14.01,2013-05-20 12:35:00,
2013-05-20 08:37:00,77.5,70.9,29.88,SE,135,2.5,3.1,80,0.00,,---,0.00,VWS V14.01,2013-05-20 12:37:00,
2013-05-20 08:40:00,78.4,71.0,29.88,South,180,2.7,3.8,78,0.00,,---,0.00,VWS V14.01,2013-05-20 12:40:00,
2013-05-20 08:42:00,79.0,71.2,29.88,East,90,2.2,3.4,77,0.00,,---,0.00,VWS V14.01,2013-05-20 12:42:00,
2013-05-20 08:45:00,79.9,71.2,29.88,SE,135,0.9,3.4,75,0.00,,---,0.00,VWS V14.01,2013-05-20 12:45:00,
2013-05-20 08:47:00,80.2,70.8,29.88,ESE,112,2.0,3.1,73,0.00,,---,0.00,VWS V14.01,2013-05-20 12:47:00,
2013-05-20 08:50:00,81.1,71.3,29.88,SE,135,1.3,3.4,72,0.00,,---,0.00,VWS V14.01,2013-05-20 12:50:00,
2013-05-20 08:52:00,81.5,71.2,29.88,South,180,2.5,2.5,71,0.00,,---,0.00,VWS V14.01,2013-05-20 12:52:00,
2013-05-20 08:55:00,82.6,72.2,29.88,SSE,158,0.0,2.5,71,0.00,,---,0.00,VWS V14.01,2013-05-20 12:55:00,
2013-05-20 08:57:00,83.5,72.7,29.88,SW,225,1.1,2.0,70,0.00,,---,0.00,VWS V14.01,2013-05-20 12:57:00,
2013-05-20 09:00:00,83.5,70.0,29.88,ESE,112,2.2,3.6,64,0.00,,---,0.00,VWS V14.01,2013-05-20 13:00:00,
2013-05-20 09:02:00,84.0,69.1,29.91,ENE,68,2.7,2.7,61,0.00,,---,0.00,VWS V14.01,2013-05-20 13:02:00,
2013-05-20 09:05:00,84.4,69.0,29.91,SSE,158,1.1,3.8,60,0.00,,---,0.00,VWS V14.01,2013-05-20 13:05:00,
2013-05-20 09:07:00,84.9,69.5,29.91,South,180,3.4,3.4,60,0.00,,---,0.00,VWS V14.01,2013-05-20 13:07:00,
2013-05-20 09:10:00,84.4,68.0,29.91,East,90,2.7,3.4,58,0.00,,---,0.00,VWS V14.01,2013-05-20 13:10:00,
2013-05-20 09:12:00,83.7,67.3,29.91,NNE,22,0.9,2.7,58,0.00,,---,0.00,VWS V14.01,2013-05-20 13:12:00,
2013-05-20 09:15:00,83.1,67.3,29.91,ENE,68,1.1,2.7,59,0.00,,---,0.00,VWS V14.01,2013-05-20 13:15:00,
2013-05-20 09:17:00,82.8,66.0,29.91,ENE,68,1.1,2.2,57,0.00,,---,0.00,VWS V14.01,2013-05-20 13:17:00,
2013-05-20 09:20:00,81.9,65.7,29.91,South,180,0.0,2.2,58,0.00,,---,0.00,VWS V14.01,2013-05-20 13:20:00,
2013-05-20 09:22:00,81.3,65.1,29.91,South,180,0.0,1.3,58,0.00,,---,0.00,VWS V14.01,2013-05-20 13:22:00,
2013-05-20 09:25:00,81.3,65.6,29.91,SW,225,0.0,1.3,59,0.00,,---,0.00,VWS V14.01,2013-05-20 13:25:00,
2013-05-20 09:27:00,81.1,65.5,29.91,WSW,248,0.0,0.0,59,0.00,,---,0.00,VWS V14.01,2013-05-20 13:27:00,
2013-05-20 09:30:00,81.1,65.5,29.91,ESE,112,1.1,2.0,59,0.00,,---,0.00,VWS V14.01,2013-05-20 13:30:00,
2013-05-20 09:32:00,81.0,65.3,29.91,SE,135,1.3,2.0,59,0.00,,---,0.00,VWS V14.01,2013-05-20 13:32:00,
2013-05-20 09:35:00,82.0,66.3,29.91,North,0,1.1,2.0,59,0.00,,---,0.00,VWS V14.01,2013-05-20 13:35:00,
2013-05-20 09:37:00,82.6,67.3,29.91,West,270,0.0,1.3,60,0.00,,---,0.00,VWS V14.01,2013-05-20 13:37:00,
2013-05-20 09:40:00,83.1,66.8,29.91,WSW,248,1.6,2.2,58,0.00,,---,0.00,VWS V14.01,2013-05-20 13:40:00,
2013-05-20 09:42:00,83.1,64.8,29.91,SSW,202,2.5,2.9,54,0.00,,---,0.00,VWS V14.01,2013-05-20 13:42:00,
2013-05-20 09:45:00,83.5,65.1,29.91,West,270,2.9,3.4,54,0.00,,---,0.00,VWS V14.01,2013-05-20 13:45:00,
2013-05-20 09:47:00,84.2,65.8,29.91,NNE,22,1.3,2.9,54,0.00,,---,0.00,VWS V14.01,2013-05-20 13:47:00,
2013-05-20 09:50:00,85.3,65.7,29.91,SE,135,2.0,4.0,52,0.00,,---,0.00,VWS V14.01,2013-05-20 13:50:00,
2013-05-20 09:52:00,85.6,65.4,29.91,South,180,1.3,2.5,51,0.00,,---,0.00,VWS V14.01,2013-05-20 13:52:00,
2013-05-20 09:55:00,86.4,65.5,29.91,SE,135,0.9,2.5,50,0.00,,---,0.00,VWS V14.01,2013-05-20 13:55:00,
2013-05-20 09:57:00,86.4,65.0,29.91,ESE,112,1.6,2.5,49,0.00,,---,0.00,VWS V14.01,2013-05-20 13:57:00,
2013-05-20 10:00:00,87.1,65.0,29.91,SE,135,1.1,2.5,48,0.00,,---,0.00,VWS V14.01,2013-05-20 14:00:00,
2013-05-20 10:02:00,87.4,64.8,29.91,SE,135,1.6,2.7,47,0.00,,---,0.00,VWS V14.01,2013-05-20 14:02:00,
2013-05-20 10:05:00,87.8,63.2,29.91,SE,135,2.2,5.4,44,0.00,,---,0.00,VWS V14.01,2013-05-20 14:05:00,
2013-05-20 10:07:00,88.0,63.4,29.91,ENE,68,2.7,3.1,44,0.00,,---,0.00,VWS V14.01,2013-05-20 14:07:00,
2013-05-20 10:10:00,88.5,63.2,29.91,ESE,112,2.0,3.4,43,0.00,,---,0.00,VWS V14.01,2013-05-20 14:10:00,
2013-05-20 10:12:00,88.5,62.5,29.91,SSE,158,2.0,3.1,42,0.00,,---,0.00,VWS V14.01,2013-05-20 14:12:00,
2013-05-20 10:15:00,88.9,62.8,29.91,West,270,1.6,3.1,42,0.00,,---,0.00,VWS V14.01,2013-05-20 14:15:00,
2013-05-20 10:17:00,89.6,63.5,29.91,East,90,2.0,2.2,42,0.00,,---,0.00,VWS V14.01,2013-05-20 14:17:00,
2013-05-20 10:20:00,89.6,60.7,29.91,NNE,22,4.0,4.0,38,0.00,,---,0.00,VWS V14.01,2013-05-20 14:20:00,
2013-05-20 10:22:00,89.6,61.4,29.91,SSE,158,2.2,4.0,39,0.00,,---,0.00,VWS V14.01,2013-05-20 14:22:00,
2013-05-20 10:25:00,89.6,61.4,29.91,East,90,1.6,4.0,39,0.00,,---,0.00,VWS V14.01,2013-05-20 14:25:00,
2013-05-20 10:27:00,90.3,62.0,29.91,NE,45,5.6,5.6,39,0.00,,---,0.00,VWS V14.01,2013-05-20 14:27:00,
2013-05-20 10:30:00,90.0,61.0,29.91,ESE,112,2.5,6.5,38,0.00,,---,0.00,VWS V14.01,2013-05-20 14:30:00,
2013-05-20 10:32:00,89.8,60.8,29.91,West,270,2.5,4.3,38,0.00,,---,0.00,VWS V14.01,2013-05-20 14:32:00,
2013-05-20 10:35:00,89.4,60.5,29.91,SW,225,1.1,4.3,38,0.00,,---,0.00,VWS V14.01,2013-05-20 14:35:00,
2013-05-20 10:37:00,90.3,61.3,29.91,ENE,68,2.0,2.7,38,0.00,,---,0.00,VWS V14.01,2013-05-20 14:37:00,
2013-05-20 10:40:00,91.0,61.2,29.91,SE,135,2.7,3.1,37,0.00,,---,0.00,VWS V14.01,2013-05-20 14:40:00,
2013-05-20 10:42:00,91.0,61.2,29.91,NE,45,1.3,2.7,37,0.00,,---,0.00,VWS V14.01,2013-05-20 14:42:00,
2013-05-20 10:45:00,92.3,62.3,29.91,ENE,68,2.0,2.7,37,0.00,,---,0.00,VWS V14.01,2013-05-20 14:45:00,
2013-05-20 10:47:00,93.0,62.9,29.91,WSW,248,1.6,3.6,37,0.00,,---,0.00,VWS V14.01,2013-05-20 14:47:00,
2013-05-20 10:50:00,92.3,59.1,29.91,SSE,158,7.2,7.2,33,0.00,,---,0.00,VWS V14.01,2013-05-20 14:50:00,
2013-05-20 10:52:00,91.6,60.1,29.91,WSW,248,1.6,7.2,35,0.00,,---,0.00,VWS V14.01,2013-05-20 14:52:00,
2013-05-20 10:55:00,91.8,59.4,29.91,ENE,68,2.7,7.2,34,0.00,,---,0.00,VWS V14.01,2013-05-20 14:55:00,
2013-05-20 10:57:00,92.5,60.1,29.91,ENE,68,0.9,3.4,34,0.00,,---,0.00,VWS V14.01,2013-05-20 14:57:00,
2013-05-20 11:00:00,92.8,61.2,29.91,WSW,248,3.1,3.4,35,0.00,,---,0.00,VWS V14.01,2013-05-20 15:00:00,
2013-05-20 11:02:00,91.8,60.2,29.91,SE,135,2.0,3.4,35,0.00,,---,0.00,VWS V14.01,2013-05-20 15:02:00,
2013-05-20 11:05:00,92.1,62.1,29.91,SSE,158,1.3,3.4,37,0.00,,---,0.00,VWS V14.01,2013-05-20 15:05:00,
2013-05-20 11:07:00,92.1,59.7,29.91,South,180,2.5,6.0,34,0.00,,---,0.00,VWS V14.01,2013-05-20 15:07:00,
2013-05-20 11:10:00,92.8,60.4,29.91,SE,135,3.1,6.0,34,0.00,,---,0.00,VWS V14.01,2013-05-20 15:10:00,
2013-05-20 11:12:00,93.4,60.0,29.91,East,90,2.0,3.4,33,0.00,,---,0.00,VWS V14.01,2013-05-20 15:12:00,
2013-05-20 11:15:00,93.4,60.0,29.91,ESE,112,2.5,3.4,33,0.00,,---,0.00,VWS V14.01,2013-05-20 15:15:00,
2013-05-20 11:17:00,93.0,57.9,29.88,SE,135,4.0,4.0,31,0.00,,---,0.00,VWS V14.01,2013-05-20 15:17:00,
2013-05-20 11:20:00,93.7,58.6,29.88,SSW,202,3.8,4.0,31,0.00,,---,0.00,VWS V14.01,2013-05-20 15:20:00,
2013-05-20 11:22:00,92.8,57.8,29.88,South,180,0.0,3.8,31,0.00,,---,0.00,VWS V14.01,2013-05-20 15:22:00,
2013-05-20 11:25:00,92.5,57.5,29.88,South,180,1.1,3.8,31,0.00,,---,0.00,VWS V14.01,2013-05-20 15:25:00,
2013-05-20 11:27:00,93.9,58.7,29.88,East,90,2.7,3.1,31,0.00,,---,0.00,VWS V14.01,2013-05-20 15:27:00,
2013-05-20 11:30:00,94.1,58.9,29.88,SSE,158,1.1,3.4,31,0.00,,---,0.00,VWS V14.01,2013-05-20 15:30:00,
2013-05-20 11:32:00,94.5,58.3,29.88,ENE,68,4.0,4.0,30,0.00,,---,0.00,VWS V14.01,2013-05-20 15:32:00,
2013-05-20 11:35:00,94.8,58.6,29.88,NW,315,3.6,4.0,30,0.00,,---,0.00,VWS V14.01,2013-05-20 15:35:00,
2013-05-20 11:37:00,94.6,57.5,29.88,East,90,4.0,6.5,29,0.00,,---,0.00,VWS V14.01,2013-05-20 15:37:00,
2013-05-20 11:40:00,94.3,57.2,29.88,East,90,3.8,6.5,29,0.00,,---,0.00,VWS V14.01,2013-05-20 15:40:00,
2013-05-20 11:42:00,94.5,58.3,29.88,ENE,68,3.4,4.3,30,0.00,,---,0.00,VWS V14.01,2013-05-20 15:42:00,
2013-05-20 11:45:00,94.5,57.3,29.88,East,90,4.5,4.9,29,0.00,,---,0.00,VWS V14.01,2013-05-20 15:45:00,
2013-05-20 11:47:00,94.3,57.2,29.88,SSE,158,4.0,4.5,29,0.00,,---,0.00,VWS V14.01,2013-05-20 15:47:00,
2013-05-20 11:50:00,95.4,58.1,29.88,NE,45,1.6,4.5,29,0.00,,---,0.00,VWS V14.01,2013-05-20 15:50:00,
2013-05-20 11:52:00,95.9,57.6,29.88,SSE,158,2.7,3.4,28,0.00,,---,0.00,VWS V14.01,2013-05-20 15:52:00,
2013-05-20 11:55:00,95.4,58.1,29.88,West,270,2.7,4.0,29,0.00,,---,0.00,VWS V14.01,2013-05-20 15:55:00,
2013-05-20 11:57:00,94.3,57.2,29.88,West,270,0.9,2.9,29,0.00,,---,0.00,VWS V14.01,2013-05-20 15:57:00,
2013-05-20 12:00:00,96.4,59.0,29.88,SSW,202,0.9,3.1,29,0.00,,---,0.00,VWS V14.01,2013-05-20 16:00:00,
2013-05-20 12:02:00,97.0,58.5,29.88,ESE,112,3.1,3.8,28,0.00,,---,0.00,VWS V14.01,2013-05-20 16:02:00,
2013-05-20 12:05:00,97.2,58.7,29.88,ENE,68,1.3,3.8,28,0.00,,---,0.00,VWS V14.01,2013-05-20 16:05:00,
2013-05-20 12:07:00,97.3,58.8,29.88,ENE,68,2.5,3.6,28,0.00,,---,0.00,VWS V14.01,2013-05-20 16:07:00,
2013-05-20 12:10:00,97.3,57.8,29.88,ENE,68,2.7,4.0,27,0.00,,---,0.00,VWS V14.01,2013-05-20 16:10:00,
2013-05-20 12:12:00,97.5,59.0,29.88,SE,135,1.6,2.9,28,0.00,,---,0.00,VWS V14.01,2013-05-20 16:12:00,
2013-05-20 12:15:00,96.8,58.3,29.88,North,0,2.0,3.8,28,0.00,,---,0.00,VWS V14.01,2013-05-20 16:15:00,
2013-05-20 12:17:00,97.5,59.0,29.85,ENE,68,1.3,2.5,28,0.00,,---,0.00,VWS V14.01,2013-05-20 16:17:00,
2013-05-20 12:20:00,97.0,57.5,29.85,NE,45,5.4,6.7,27,0.00,,---,0.00,VWS V14.01,2013-05-20 16:20:00,
2013-05-20 12:22:00,95.5,56.3,29.85,ENE,68,4.7,7.8,27,0.00,,---,0.00,VWS V14.01,2013-05-20 16:22:00,
2013-05-20 12:25:00,95.5,57.3,29.85,SSW,202,2.0,7.8,28,0.00,,---,0.00,VWS V14.01,2013-05-20 16:25:00,
2013-05-20 12:27:00,95.4,57.1,29.85,South,180,1.3,2.0,28,0.00,,---,0.00,VWS V14.01,2013-05-20 16:27:00,
2013-05-20 12:30:00,95.9,56.6,29.85,East,90,2.7,6.3,27,0.00,,---,0.00,VWS V14.01,2013-05-20 16:30:00,
2013-05-20 12:32:00,96.1,57.7,29.85,East,90,1.6,7.2,28,0.00,,---,0.00,VWS V14.01,2013-05-20 16:32:00,
2013-05-20 12:35:00,95.4,56.1,29.85,SE,135,2.0,7.2,27,0.00,,---,0.00,VWS V14.01,2013-05-20 16:35:00,
2013-05-20 12:37:00,95.7,56.4,29.85,ESE,112,2.9,2.9,27,0.00,,---,0.00,VWS V14.01,2013-05-20 16:37:00,
2013-05-20 12:40:00,96.8,57.3,29.85,ENE,68,3.1,3.4,27,0.00,,---,0.00,VWS V14.01,2013-05-20 16:40:00,
2013-05-20 12:42:00,97.5,56.9,29.85,East,90,2.9,8.5,26,0.00,,---,0.00,VWS V14.01,2013-05-20 16:42:00,
2013-05-20 12:45:00,97.5,58.0,29.85,SSE,158,4.9,8.5,27,0.00,,---,0.00,VWS V14.01,2013-05-20 16:45:00,
2013-05-20 12:47:00,97.9,58.2,29.88,SSW,202,1.6,4.9,27,0.00,,---,0.00,VWS V14.01,2013-05-20 16:47:00,
2013-05-20 12:50:00,98.2,57.5,29.88,NNW,338,2.0,4.9,26,0.00,,---,0.00,VWS V14.01,2013-05-20 16:50:00,
2013-05-20 12:52:00,99.3,58.4,29.88,ESE,112,2.2,2.7,26,0.00,,---,0.00,VWS V14.01,2013-05-20 16:52:00,
2013-05-20 12:55:00,98.8,58.0,29.88,SE,135,3.8,6.5,26,0.00,,---,0.00,VWS V14.01,2013-05-20 16:55:00,
2013-05-20 12:57:00,98.6,57.8,29.88,ENE,68,1.6,4.3,26,0.00,,---,0.00,VWS V14.01,2013-05-20 16:57:00,
2013-05-20 13:00:00,98.2,57.5,29.88,ESE,112,3.4,5.8,26,0.00,,---,0.00,VWS V14.01,2013-05-20 17:00:00,
2013-05-20 13:03:00,98.6,57.8,29.85,South,180,0.9,3.4,26,0.00,,---,0.00,VWS V14.01,2013-05-20 17:03:00,
2013-05-20 13:05:00,97.0,56.4,29.85,SSE,158,2.0,3.4,26,0.00,,---,0.00,VWS V14.01,2013-05-20 17:05:00,
2013-05-20 13:08:00,96.8,56.3,29.85,SW,225,1.3,2.0,26,0.00,,---,0.00,VWS V14.01,2013-05-20 17:08:00,
2013-05-20 13:10:00,94.6,55.5,29.85,East,90,2.0,2.0,27,0.00,,---,0.00,VWS V14.01,2013-05-20 17:10:00,
2013-05-20 13:13:00,94.1,55.0,29.85,ESE,112,2.0,3.4,27,0.00,,---,0.00,VWS V14.01,2013-05-20 17:13:00,
2013-05-20 13:15:00,93.4,54.4,29.85,SSE,158,2.5,5.6,27,0.00,,---,0.00,VWS V14.01,2013-05-20 17:15:00,
2013-05-20 13:18:00,95.4,56.1,29.85,East,90,4.3,4.3,27,0.00,,---,0.00,VWS V14.01,2013-05-20 17:18:00,
2013-05-20 13:20:00,95.0,55.8,29.85,East,90,5.6,5.6,27,0.00,,---,0.00,VWS V14.01,2013-05-20 17:20:00,
2013-05-20 13:23:00,95.2,56.0,29.85,East,90,4.0,5.6,27,0.00,,---,0.00,VWS V14.01,2013-05-20 17:23:00,
2013-05-20 13:25:00,95.9,56.6,29.85,East,90,4.7,5.6,27,0.00,,---,0.00,VWS V14.01,2013-05-20 17:25:00,
2013-05-20 13:28:00,96.8,56.3,29.85,East,90,1.3,4.7,26,0.00,,---,0.00,VWS V14.01,2013-05-20 17:28:00,
2013-05-20 13:30:00,97.5,56.9,29.85,East,90,3.8,4.9,26,0.00,,---,0.00,VWS V14.01,2013-05-20 17:30:00,
2013-05-20 13:33:00,99.0,57.0,29.85,ESE,112,0.9,3.8,25,0.00,,---,0.00,VWS V14.01,2013-05-20 17:33:00,
2013-05-20 13:35:00,99.0,57.0,29.85,East,90,2.7,3.8,25,0.00,,---,0.00,VWS V14.01,2013-05-20 17:35:00,
2013-05-20 13:38:00,99.9,58.9,29.85,ENE,68,1.3,2.7,26,0.00,,---,0.00,VWS V14.01,2013-05-20 17:38:00,
2013-05-20 13:40:00,99.5,57.5,29.85,NNE,22,3.4,8.5,25,0.00,,---,0.00,VWS V14.01,2013-05-20 17:40:00,
2013-05-20 13:43:00,98.1,57.4,29.85,ENE,68,5.8,6.0,26,0.00,,---,0.00,VWS V14.01,2013-05-20 17:43:00,
2013-05-20 13:45:00,96.8,56.3,29.85,East,90,5.4,6.7,26,0.00,,---,0.00,VWS V14.01,2013-05-20 17:45:00,
2013-05-20 13:48:00,95.9,55.5,29.85,East,90,3.4,5.4,26,0.00,,---,0.00,VWS V14.01,2013-05-20 17:48:00,
2013-05-20 13:50:00,95.4,55.1,29.85,West,270,1.6,5.4,26,0.00,,---,0.00,VWS V14.01,2013-05-20 17:50:00,
2013-05-20 13:53:00,94.5,55.3,29.85,ENE,68,0.0,1.6,27,0.00,,---,0.00,VWS V14.01,2013-05-20 17:53:00,
2013-05-20 13:55:00,94.1,55.0,29.85,South,180,2.2,3.8,27,0.00,,---,0.00,VWS V14.01,2013-05-20 17:55:00,
2013-05-20 13:58:00,93.4,54.4,29.85,East,90,2.7,3.6,27,0.00,,---,0.00,VWS V14.01,2013-05-20 17:58:00,
2013-05-20 14:00:00,93.6,54.6,29.85,East,90,4.3,4.3,27,0.00,,---,0.00,VWS V14.01,2013-05-20 18:00:00,
2013-05-20 14:03:00,93.4,54.4,29.82,NNW,338,1.3,4.3,27,0.00,,---,0.00,VWS V14.01,2013-05-20 18:03:00,
2013-05-20 14:05:00,93.0,54.1,29.82,NE,45,2.9,4.3,27,0.00,,---,0.00,VWS V14.01,2013-05-20 18:05:00,
2013-05-20 14:08:00,93.7,54.7,29.82,West,270,1.1,2.9,27,0.00,,---,0.00,VWS V14.01,2013-05-20 18:08:00,
2013-05-20 14:10:00,94.1,55.0,29.82,NNW,338,2.2,2.9,27,0.00,,---,0.00,VWS V14.01,2013-05-20 18:10:00,
2013-05-20 14:13:00,94.1,55.0,29.82,East,90,2.2,3.1,27,0.00,,---,0.00,VWS V14.01,2013-05-20 18:13:00,
2013-05-20 14:15:00,94.5,55.3,29.82,East,90,2.0,3.1,27,0.00,,---,0.00,VWS V14.01,2013-05-20 18:15:00,
2013-05-20 14:18:00,95.0,55.8,29.82,SSE,158,1.3,3.4,27,0.00,,---,0.00,VWS V14.01,2013-05-20 18:18:00,
2013-05-20 14:20:00,95.5,56.3,29.82,North,0,1.3,4.7,27,0.00,,---,0.00,VWS V14.01,2013-05-20 18:20:00,
2013-05-20 14:23:00,94.8,55.7,29.82,WSW,248,2.0,3.1,27,0.00,,---,0.00,VWS V14.01,2013-05-20 18:23:00,
2013-05-20 14:25:00,94.8,55.7,29.82,East,90,1.6,3.8,27,0.00,,---,0.00,VWS V14.01,2013-05-20 18:25:00,
2013-05-20 14:28:00,95.7,56.4,29.82,ENE,68,2.9,4.0,27,0.00,,---,0.00,VWS V14.01,2013-05-20 18:28:00,
2013-05-20 14:30:00,94.8,55.7,29.82,ENE,68,2.2,4.9,27,0.00,,---,0.00,VWS V14.01,2013-05-20 18:30:00,
2013-05-20 14:33:00,93.6,54.6,29.82,ENE,68,2.7,4.3,27,0.00,,---,0.00,VWS V14.01,2013-05-20 18:33:00,
2013-05-20 14:35:00,92.1,54.4,29.82,ENE,68,3.1,4.7,28,0.00,,---,0.00,VWS V14.01,2013-05-20 18:35:00,
2013-05-20 14:38:00,90.9,53.3,29.82,East,90,2.7,4.3,28,0.00,,---,0.00,VWS V14.01,2013-05-20 18:38:00,
2013-05-20 14:40:00,89.8,53.3,29.82,East,90,2.0,4.3,29,0.00,,---,0.00,VWS V14.01,2013-05-20 18:40:00,
2013-05-20 14:43:00,89.2,52.9,29.82,ENE,68,2.7,3.4,29,0.00,,---,0.00,VWS V14.01,2013-05-20 18:43:00,
2013-05-20 14:45:00,89.1,53.6,29.82,ENE,68,1.3,3.4,30,0.00,,---,0.00,VWS V14.01,2013-05-20 18:45:00,
2013-05-20 14:48:00,88.9,53.5,29.82,East,90,1.1,1.3,30,0.00,,---,0.00,VWS V14.01,2013-05-20 18:48:00,
2013-05-20 14:50:00,88.7,53.3,29.82,ENE,68,2.2,2.7,30,0.00,,---,0.00,VWS V14.01,2013-05-20 18:50:00,
2013-05-20 14:53:00,88.2,52.8,29.82,ESE,112,2.5,2.5,30,0.00,,---,0.00,VWS V14.01,2013-05-20 18:53:00,
2013-05-20 14:55:00,87.4,53.1,29.82,East,90,3.4,4.0,31,0.00,,---,0.00,VWS V14.01,2013-05-20 18:55:00,
2013-05-20 14:58:00,87.1,53.7,29.82,ENE,68,1.1,3.6,32,0.00,,---,0.00,VWS V14.01,2013-05-20 18:58:00,
2013-05-20 15:00:00,86.7,53.4,29.82,NE,45,1.1,3.6,32,0.00,,---,0.00,VWS V14.01,2013-05-20 19:00:00,
2013-05-20 15:03:00,86.5,53.2,29.82,SE,135,0.0,1.1,32,0.00,,---,0.00,VWS V14.01,2013-05-20 19:03:00,
2013-05-20 15:05:00,86.4,53.9,29.82,NNE,22,0.0,1.1,33,0.00,,---,0.00,VWS V14.01,2013-05-20 19:05:00,
2013-05-20 15:08:00,85.8,54.2,29.82,East,90,1.1,1.1,34,0.00,,---,0.00,VWS V14.01,2013-05-20 19:08:00,
2013-05-20 15:10:00,85.8,54.2,29.82,ENE,68,1.6,1.6,34,0.00,,---,0.00,VWS V14.01,2013-05-20 19:10:00,
2013-05-20 15:13:00,85.3,54.6,29.82,East,90,1.3,2.7,35,0.00,,---,0.00,VWS V14.01,2013-05-20 19:13:00,
2013-05-20 15:15:00,84.9,54.2,29.82,SE,135,0.0,2.7,35,0.00,,---,0.00,VWS V14.01,2013-05-20 19:15:00,
2013-05-20 15:18:00,84.6,54.7,29.82,SSE,158,1.1,1.1,36,0.00,,---,0.00,VWS V14.01,2013-05-20 19:18:00,
2013-05-20 15:20:00,84.4,54.5,29.82,SSE,158,0.0,1.1,36,0.00,,---,0.00,VWS V14.01,2013-05-20 19:20:00,
2013-05-20 15:23:00,84.0,55.0,29.82,SSW,202,1.3,1.3,37,0.00,,---,0.00,VWS V14.01,2013-05-20 19:23:00,
2013-05-20 15:25:00,83.8,56.3,29.82,WSW,248,1.3,2.0,39,0.00,,---,0.00,VWS V14.01,2013-05-20 19:25:00,
2013-05-20 15:28:00,83.3,55.8,29.82,WSW,248,1.6,2.0,39,0.00,,---,0.00,VWS V14.01,2013-05-20 19:28:00,
2013-05-20 15:30:00,83.1,56.3,29.82,WSW,248,1.6,2.0,40,0.00,,---,0.00,VWS V14.01,2013-05-20 19:30:00,
2013-05-20 15:33:00,82.8,57.3,29.82,WSW,248,2.5,2.9,42,0.00,,---,0.00,VWS V14.01,2013-05-20 19:33:00,
2013-05-20 15:35:00,82.8,57.3,29.82,NNW,338,4.0,4.0,42,0.00,,---,0.00,VWS V14.01,2013-05-20 19:35:00,
2013-05-20 15:38:00,82.2,57.5,29.82,WSW,248,2.9,4.0,43,0.00,,---,0.00,VWS V14.01,2013-05-20 19:38:00,
2013-05-20 15:40:00,81.7,57.7,29.82,West,270,2.0,4.0,44,0.00,,---,0.00,VWS V14.01,2013-05-20 19:40:00,
2013-05-20 15:43:00,81.0,58.3,29.82,West,270,2.7,3.6,46,0.00,,---,0.00,VWS V14.01,2013-05-20 19:43:00,
2013-05-20 15:45:00,80.2,58.2,29.82,NW,315,3.1,3.6,47,0.00,,---,0.00,VWS V14.01,2013-05-20 19:45:00,
2013-05-20 15:48:00,79.5,59.8,29.82,NNW,338,2.7,3.8,51,0.00,,---,0.00,VWS V14.01,2013-05-20 19:48:00,
2013-05-20 15:50:00,79.2,60.0,29.82,NW,315,1.1,3.8,52,0.00,,---,0.00,VWS V14.01,2013-05-20 19:50:00,
2013-05-20 15:53:00,78.8,60.8,29.82,East,90,2.2,2.2,54,0.00,,---,0.00,VWS V14.01,2013-05-20 19:53:00,
2013-05-20 15:55:00,78.4,61.5,29.82,NNE,22,0.9,2.9,56,0.00,,---,0.00,VWS V14.01,2013-05-20 19:55:00,
2013-05-20 15:58:00,78.3,61.3,29.82,WSW,248,3.6,3.6,56,0.00,,---,0.00,VWS V14.01,2013-05-20 19:58:00,
2013-05-20 16:00:00,77.7,64.1,29.82,WSW,248,2.7,4.0,63,0.00,,---,0.00,VWS V14.01,2013-05-20 20:00:00,
2013-05-20 16:03:00,77.2,65.4,29.82,SSW,202,1.6,3.1,67,0.00,,---,0.00,VWS V14.01,2013-05-20 20:03:00,
2013-05-20 16:05:00,77.0,64.8,29.82,WSW,248,1.1,3.1,66,0.00,,---,0.00,VWS V14.01,2013-05-20 20:05:00,
2013-05-20 16:08:00,77.2,64.9,29.82,SSE,158,1.3,1.3,66,0.00,,---,0.00,VWS V14.01,2013-05-20 20:08:00,
2013-05-20 16:10:00,77.2,64.5,29.82,NNW,338,1.6,1.6,65,0.00,,---,0.00,VWS V14.01,2013-05-20 20:10:00,
2013-05-20 16:13:00,77.0,64.8,29.82,ENE,68,0.9,2.9,66,0.00,,---,0.00,VWS V14.01,2013-05-20 20:13:00,
2013-05-20 16:15:00,77.0,64.3,29.82,NW,315,1.3,2.9,65,0.00,,---,0.00,VWS V14.01,2013-05-20 20:15:00,
2013-05-20 16:18:00,77.0,64.3,29.82,NW,315,1.3,2.0,65,0.00,,---,0.00,VWS V14.01,2013-05-20 20:18:00,
2013-05-20 16:20:00,77.0,64.3,29.82,NNE,22,2.5,2.5,65,0.00,,---,0.00,VWS V14.01,2013-05-20 20:20:00,
2013-05-20 16:23:00,77.0,64.3,29.82,WNW,292,2.5,3.4,65,0.00,,---,0.00,VWS V14.01,2013-05-20 20:23:00,
2013-05-20 16:25:00,77.0,64.8,29.82,NNW,338,2.0,3.4,66,0.00,,---,0.00,VWS V14.01,2013-05-20 20:25:00,
2013-05-20 16:28:00,77.2,64.9,29.82,NNE,22,0.0,3.4,66,0.00,,---,0.00,VWS V14.01,2013-05-20 20:28:00,
2013-05-20 16:30:00,77.4,65.6,29.82,NE,45,2.5,3.4,67,0.00,,---,0.00,VWS V14.01,2013-05-20 20:30:00,
2013-05-20 16:33:00,77.5,65.7,29.82,WNW,292,2.9,2.9,67,0.00,,---,0.00,VWS V14.01,2013-05-20 20:33:00,
2013-05-20 16:35:00,77.5,64.9,29.82,ENE,68,1.6,3.8,65,0.00,,---,0.00,VWS V14.01,2013-05-20 20:35:00,
2013-05-20 16:38:00,77.4,63.8,29.82,ENE,68,0.9,2.2,63,0.00,,---,0.00,VWS V14.01,2013-05-20 20:38:00,
2013-05-20 16:40:00,77.2,61.8,29.82,WNW,292,1.1,3.1,59,0.00,,---,0.00,VWS V14.01,2013-05-20 20:40:00,
2013-05-20 16:43:00,77.0,60.1,29.82,NNW,338,1.6,2.7,56,0.00,,---,0.00,VWS V14.01,2013-05-20 20:43:00,
2013-05-20 16:45:00,76.8,58.9,29.82,NNE,22,1.6,3.4,54,0.00,,---,0.00,VWS V14.01,2013-05-20 20:45:00,
2013-05-20 16:48:00,76.8,58.4,29.82,West,270,0.9,2.0,53,0.00,,---,0.00,VWS V14.01,2013-05-20 20:48:00,
2013-05-20 16:50:00,76.6,57.2,29.82,NNW,338,2.2,2.5,51,0.00,,---,0.00,VWS V14.01,2013-05-20 20:50:00,
2013-05-20 16:53:00,76.3,56.8,29.82,NNW,338,1.6,2.2,51,0.00,,---,0.00,VWS V14.01,2013-05-20 20:53:00,
2013-05-20 16:55:00,76.3,55.7,29.82,WSW,248,1.3,2.5,49,0.00,,---,0.00,VWS V14.01,2013-05-20 20:55:00,
2013-05-20 16:58:00,75.9,54.8,29.82,NW,315,1.6,4.7,48,0.00,,---,0.00,VWS V14.01,2013-05-20 20:58:00,
2013-05-20 17:00:00,76.1,55.0,29.82,WSW,248,0.9,4.7,48,0.00,,---,0.00,VWS V14.01,2013-05-20 21:00:00,
2013-05-20 17:03:00,75.9,54.8,29.82,WSW,248,1.6,2.9,48,0.00,,---,0.00,VWS V14.01,2013-05-20 21:03:00,
2013-05-20 17:05:00,75.9,54.8,29.82,SE,135,0.9,2.9,48,0.00,,---,0.00,VWS V14.01,2013-05-20 21:05:00,
2013-05-20 17:08:00,76.3,55.2,29.82,WNW,292,1.6,2.0,48,0.00,,---,0.00,VWS V14.01,2013-05-20 21:08:00,
2013-05-20 17:10:00,76.3,55.2,29.82,East,90,1.3,2.5,48,0.00,,---,0.00,VWS V14.01,2013-05-20 21:10:00,
2013-05-20 17:13:00,76.5,55.3,29.82,East,90,2.2,3.1,48,0.00,,---,0.00,VWS V14.01,2013-05-20 21:13:00,
2013-05-20 17:15:00,77.7,56.5,29.82,East,90,1.3,3.1,48,0.00,,---,0.00,VWS V14.01,2013-05-20 21:15:00,
2013-05-20 17:18:00,79.5,57.5,29.79,East,90,3.4,4.3,47,0.00,,---,0.00,VWS V14.01,2013-05-20 21:18:00,
2013-05-20 17:20:00,80.6,57.3,29.80,East,90,1.3,4.3,45,0.00,,---,0.00,VWS V14.01,2013-05-20 21:20:00,
2013-05-20 17:23:00,83.1,59.6,29.79,East,90,1.3,2.5,45,0.00,,---,0.00,VWS V14.01,2013-05-20 21:23:00,
2013-05-20 17:25:00,83.1,57.7,29.80,WSW,248,1.3,4.3,42,0.00,,---,0.00,VWS V14.01,2013-05-20 21:25:00,
2013-05-20 17:28:00,83.5,56.6,29.79,ESE,112,2.5,4.7,40,0.00,,---,0.00,VWS V14.01,2013-05-20 21:28:00,
2013-05-20 17:30:00,84.2,57.3,29.80,West,270,2.0,4.7,40,0.00,,---,0.00,VWS V14.01,2013-05-20 21:30:00,
2013-05-20 17:33:00,83.7,56.8,29.79,East,90,3.6,3.6,40,0.00,,---,0.00,VWS V14.01,2013-05-20 21:33:00,
2013-05-20 17:35:00,82.6,55.1,29.80,NE,45,3.4,4.0,39,0.00,,---,0.00,VWS V14.01,2013-05-20 21:35:00,
2013-05-20 17:38:00,81.3,53.3,29.79,ENE,68,2.2,6.3,38,0.00,,---,0.00,VWS V14.01,2013-05-20 21:38:00,
2013-05-20 17:40:00,81.9,53.8,29.80,East,90,2.9,6.3,38,0.00,,---,0.00,VWS V14.01,2013-05-20 21:40:00,
2013-05-20 17:43:00,82.8,54.6,29.79,East,90,2.7,3.4,38,0.00,,---,0.00,VWS V14.01,2013-05-20 21:43:00,
2013-05-20 17:45:00,83.5,55.2,29.80,East,90,2.7,3.4,38,0.00,,---,0.00,VWS V14.01,2013-05-20 21:45:00,
2013-05-20 17:48:00,82.6,53.7,29.82,East,90,2.5,4.9,37,0.00,,---,0.00,VWS V14.01,2013-05-20 21:48:00,
2013-05-20 17:50:00,81.7,52.9,29.82,East,90,4.3,6.0,37,0.00,,---,0.00,VWS V14.01,2013-05-20 21:50:00,
2013-05-20 17:53:00,79.7,51.2,29.82,South,180,5.4,13.6,37,0.00,,---,0.00,VWS V14.01,2013-05-20 21:53:00,
2013-05-20 17:55:00,79.3,50.8,29.82,ENE,68,3.6,13.6,37,0.00,,---,0.00,VWS V14.01,2013-05-20 21:55:00,
2013-05-20 17:58:00,79.0,51.2,29.82,East,90,4.9,6.3,38,0.00,,---,0.00,VWS V14.01,2013-05-20 21:58:00,
2013-05-20 18:00:00,78.1,52.5,29.82,East,90,5.8,7.6,41,0.00,,---,0.00,VWS V14.01,2013-05-20 22:00:00,
2013-05-20 18:03:00,77.5,52.7,29.82,East,90,4.0,10.3,42,0.00,,---,0.00,VWS V14.01,2013-05-20 22:03:00,
2013-05-20 18:05:00,77.4,53.1,29.82,North,0,5.6,10.3,43,0.00,,---,0.00,VWS V14.01,2013-05-20 22:05:00,
2013-05-20 18:08:00,77.0,54.1,29.82,ENE,68,6.3,10.3,45,0.00,,---,0.00,VWS V14.01,2013-05-20 22:08:00,
2013-05-20 18:10:00,76.8,54.5,29.82,East,90,2.9,10.3,46,0.00,,---,0.00,VWS V14.01,2013-05-20 22:10:00,
2013-05-20 18:13:00,76.6,54.9,29.82,ENE,68,5.6,8.7,47,0.00,,---,0.00,VWS V14.01,2013-05-20 22:13:00,
2013-05-20 18:15:00,76.5,54.8,29.82,ENE,68,3.6,8.7,47,0.00,,---,0.00,VWS V14.01,2013-05-20 22:15:00,
2013-05-20 18:18:00,76.1,54.4,29.82,ENE,68,8.5,9.8,47,0.00,,---,0.00,VWS V14.01,2013-05-20 22:18:00,
2013-05-20 18:20:00,75.9,54.8,29.82,East,90,6.3,16.3,48,0.00,,---,0.00,VWS V14.01,2013-05-20 22:20:00,
2013-05-20 18:23:00,75.7,55.2,29.82,East,90,6.5,9.8,49,0.00,,---,0.00,VWS V14.01,2013-05-20 22:23:00,
2013-05-20 18:25:00,75.7,55.2,29.82,East,90,3.1,9.8,49,0.00,,---,0.00,VWS V14.01,2013-05-20 22:25:00,
2013-05-20 18:28:00,75.4,55.5,29.82,East,90,5.6,11.0,50,0.00,,---,0.00,VWS V14.01,2013-05-20 22:28:00,
2013-05-20 18:30:00,75.2,55.3,29.82,ESE,112,8.1,11.0,50,0.00,,---,0.00,VWS V14.01,2013-05-20 22:30:00,
2013-05-20 18:33:00,75.0,56.2,29.82,NE,45,7.8,8.5,52,0.00,,---,0.00,VWS V14.01,2013-05-20 22:33:00,
2013-05-20 18:35:00,75.0,56.2,29.82,NNW,338,5.6,8.5,52,0.00,,---,0.00,VWS V14.01,2013-05-20 22:35:00,
2013-05-20 18:38:00,74.8,56.0,29.82,East,90,4.3,7.8,52,0.00,,---,0.00,VWS V14.01,2013-05-20 22:38:00,
2013-05-20 18:40:00,74.8,56.6,29.82,ENE,68,3.4,7.8,53,0.00,,---,0.00,VWS V14.01,2013-05-20 22:40:00,
2013-05-20 18:43:00,74.8,56.6,29.82,East,90,6.5,7.6,53,0.00,,---,0.00,VWS V14.01,2013-05-20 22:43:00,
2013-05-20 18:45:00,74.8,56.6,29.82,East,90,4.7,7.6,53,0.00,,---,0.00,VWS V14.01,2013-05-20 22:45:00,
2013-05-20 18:48:00,74.8,57.1,29.82,East,90,4.0,5.8,54,0.00,,---,0.00,VWS V14.01,2013-05-20 22:48:00,
2013-05-20 18:50:00,74.8,57.1,29.82,ENE,68,6.5,6.5,54,0.00,,---,0.00,VWS V14.01,2013-05-20 22:50:00,
2013-05-20 18:53:00,74.8,57.6,29.82,NE,45,2.9,6.5,55,0.00,,---,0.00,VWS V14.01,2013-05-20 22:53:00,
2013-05-20 18:55:00,74.8,57.6,29.82,East,90,4.9,6.5,55,0.00,,---,0.00,VWS V14.01,2013-05-20 22:55:00,
2013-05-20 18:58:00,74.8,58.1,29.82,ESE,112,5.4,5.8,56,0.00,,---,0.00,VWS V14.01,2013-05-20 22:58:00,
2013-05-20 19:00:00,74.8,57.6,29.82,ENE,68,3.1,7.6,55,0.00,,---,0.00,VWS V14.01,2013-05-20 23:00:00,
2013-05-20 19:03:00,75.0,58.3,29.82,East,90,3.4,7.6,56,0.00,,---,0.00,VWS V14.01,2013-05-20 23:03:00,
2013-05-20 19:05:00,75.0,58.3,29.82,East,90,2.9,7.6,56,0.00,,---,0.00,VWS V14.01,2013-05-20 23:05:00,
2013-05-20 19:08:00,75.2,58.4,29.82,East,90,2.5,4.0,56,0.00,,---,0.00,VWS V14.01,2013-05-20 23:08:00,
2013-05-20 19:10:00,75.2,58.4,29.82,East,90,3.6,4.3,56,0.00,,---,0.00,VWS V14.01,2013-05-20 23:10:00,
2013-05-20 19:13:00,75.0,58.3,29.82,East,90,1.6,5.4,56,0.00,,---,0.00,VWS V14.01,2013-05-20 23:13:00,
2013-05-20 19:15:00,75.0,58.3,29.82,East,90,3.8,5.4,56,0.00,,---,0.00,VWS V14.01,2013-05-20 23:15:00,
2013-05-20 19:18:00,75.0,58.8,29.85,East,90,5.4,5.8,57,0.00,,---,0.00,VWS V14.01,2013-05-20 23:18:00,
2013-05-20 19:20:00,74.8,58.6,29.85,East,90,4.3,5.8,57,0.00,,---,0.00,VWS V14.01,2013-05-20 23:20:00,
2013-05-20 19:23:00,74.8,58.1,29.85,East,90,2.5,5.4,56,0.00,,---,0.00,VWS V14.01,2013-05-20 23:23:00,
2013-05-20 19:25:00,74.7,57.9,29.85,East,90,5.6,5.6,56,0.00,,---,0.00,VWS V14.01,2013-05-20 23:25:00,
2013-05-20 19:28:00,74.7,57.9,29.85,East,90,1.3,5.6,56,0.00,,---,0.00,VWS V14.01,2013-05-20 23:28:00,
2013-05-20 19:30:00,74.7,58.4,29.85,East,90,2.9,5.6,57,0.00,,---,0.00,VWS V14.01,2013-05-20 23:30:00,
2013-05-20 19:33:00,74.7,58.4,29.85,ESE,112,3.4,3.4,57,0.00,,---,0.00,VWS V14.01,2013-05-20 23:33:00,
2013-05-20 19:35:00,74.7,57.9,29.85,ESE,112,3.8,4.3,56,0.00,,---,0.00,VWS V14.01,2013-05-20 23:35:00,
2013-05-20 19:38:00,74.7,58.4,29.85,South,180,2.2,3.8,57,0.00,,---,0.00,VWS V14.01,2013-05-20 23:38:00,
2013-05-20 19:40:00,74.5,57.8,29.85,South,180,0.0,3.8,56,0.00,,---,0.00,VWS V14.01,2013-05-20 23:40:00,
2013-05-20 19:43:00,74.5,57.8,29.85,South,180,0.0,1.1,56,0.00,,---,0.00,VWS V14.01,2013-05-20 23:43:00,
2013-05-20 19:45:00,74.5,58.3,29.85,East,90,0.0,1.1,57,0.00,,---,0.00,VWS V14.01,2013-05-20 23:45:00,
2013-05-20 19:48:00,74.5,58.3,29.85,East,90,1.3,1.3,57,0.00,,---,0.00,VWS V14.01,2013-05-20 23:48:00,
2013-05-20 19:50:00,74.3,58.1,29.85,East,90,0.0,2.5,57,0.00,,---,0.00,VWS V14.01,2013-05-20 23:50:00,
2013-05-20 19:53:00,74.1,58.4,29.85,SE,135,0.0,0.0,58,0.00,,---,0.00,VWS V14.01,2013-05-20 23:53:00,
2013-05-20 19:55:00,74.1,57.9,29.85,SE,135,0.0,0.0,57,0.00,,---,0.00,VWS V14.01,2013-05-20 23:55:00,
2013-05-20 19:58:00,73.9,58.2,29.85,SE,135,0.0,2.0,58,0.00,,---,0.00,VWS V14.01,2013-05-20 23:58:00,
2013-05-20 20:00:00,73.9,58.2,29.85,SE,135,0.0,2.0,58,0.00,,---,0.00,VWS V14.01,2013-05-21 00:00:00,
2013-05-20 20:03:00,73.8,58.1,29.85,South,180,0.0,0.0,58,0.00,,---,0.00,VWS V14.01,2013-05-21 00:03:00,
2013-05-20 20:05:00,73.6,57.9,29.85,South,180,0.0,0.0,58,0.00,,---,0.00,VWS V14.01,2013-05-21 00:05:00,
2013-05-20 20:08:00,73.2,58.0,29.85,SSW,202,0.0,0.0,59,0.00,,---,0.00,VWS V14.01,2013-05-21 00:08:00,
2013-05-20 20:10:00,73.2,58.0,29.85,SSW,202,0.0,0.0,59,0.00,,---,0.00,VWS V14.01,2013-05-21 00:10:00,
2013-05-20 20:13:00,73.0,58.3,29.85,SSW,202,0.0,0.0,60,0.00,,---,0.00,VWS V14.01,2013-05-21 00:13:00,
2013-05-20 20:15:00,73.0,58.3,29.85,SSW,202,0.0,0.0,60,0.00,,---,0.00,VWS V14.01,2013-05-21 00:15:00,
2013-05-20 20:18:00,72.9,58.6,29.85,SSW,202,0.0,0.0,61,0.00,,---,0.00,VWS V14.01,2013-05-21 00:18:00,
2013-05-20 20:20:00,72.9,58.6,29.85,WSW,248,0.0,0.0,61,0.00,,---,0.00,VWS V14.01,2013-05-21 00:20:00,
2013-05-20 20:23:00,72.7,58.5,29.85,West,270,1.1,1.6,61,0.00,,---,0.00,VWS V14.01,2013-05-21 00:23:00,
2013-05-20 20:25:00,72.7,58.5,29.85,West,270,1.3,1.6,61,0.00,,---,0.00,VWS V14.01,2013-05-21 00:25:00,
2013-05-20 20:28:00,72.7,58.9,29.85,West,270,0.0,1.3,62,0.00,,---,0.00,VWS V14.01,2013-05-21 00:28:00,
2013-05-20 20:30:00,72.5,58.8,29.85,West,270,0.0,1.3,62,0.00,,---,0.00,VWS V14.01,2013-05-21 00:30:00,
2013-05-20 20:33:00,72.3,58.6,29.85,West,270,0.0,0.0,62,0.00,,---,0.00,VWS V14.01,2013-05-21 00:33:00,
2013-05-20 20:35:00,72.3,59.0,29.85,West,270,0.0,0.0,63,0.00,,---,0.00,VWS V14.01,2013-05-21 00:35:00,
2013-05-20 20:38:00,72.1,59.3,29.85,East,90,2.5,2.5,64,0.00,,---,0.00,VWS V14.01,2013-05-21 00:38:00,
2013-05-20 20:40:00,72.1,60.6,29.85,East,90,2.5,2.5,67,0.00,,---,0.00,VWS V14.01,2013-05-21 00:40:00,
2013-05-20 20:43:00,72.1,60.6,29.85,East,90,0.0,2.5,67,0.00,,---,0.00,VWS V14.01,2013-05-21 00:43:00,
2013-05-20 20:45:00,72.1,60.6,29.85,East,90,0.0,2.5,67,0.00,,---,0.00,VWS V14.01,2013-05-21 00:45:00,
2013-05-20 20:48:00,72.0,60.0,29.88,ENE,68,0.0,0.0,66,0.00,,---,0.00,VWS V14.01,2013-05-21 00:48:00,
2013-05-20 20:50:00,72.0,60.0,29.88,ENE,68,0.0,0.0,66,0.00,,---,0.00,VWS V14.01,2013-05-21 00:50:00,
2013-05-20 20:53:00,72.1,60.2,29.88,East,90,1.6,2.0,66,0.00,,---,0.00,VWS V14.01,2013-05-21 00:53:00,
2013-05-20 20:55:00,72.1,61.0,29.88,East,90,1.6,3.1,68,0.00,,---,0.00,VWS V14.01,2013-05-21 00:55:00,
2013-05-20 20:58:00,72.1,60.6,29.88,ENE,68,1.3,2.2,67,0.00,,---,0.00,VWS V14.01,2013-05-21 00:58:00,
2013-05-20 21:00:00,72.1,60.6,29.88,ENE,68,0.9,2.2,67,0.00,,---,0.00,VWS V14.01,2013-05-21 01:00:00,
2013-05-20 21:03:00,72.1,60.6,29.88,ESE,112,2.9,2.9,67,0.00,,---,0.00,VWS V14.01,2013-05-21 01:03:00,
2013-05-20 21:05:00,72.3,61.2,29.88,East,90,2.5,2.9,68,0.00,,---,0.00,VWS V14.01,2013-05-21 01:05:00,
2013-05-20 21:08:00,72.5,61.3,29.88,ENE,68,2.5,3.1,68,0.00,,---,0.00,VWS V14.01,2013-05-21 01:08:00,
2013-05-20 21:10:00,72.3,61.2,29.88,East,90,1.1,3.1,68,0.00,,---,0.00,VWS V14.01,2013-05-21 01:10:00,
2013-05-20 21:13:00,72.3,60.8,29.88,ENE,68,1.3,1.3,67,0.00,,---,0.00,VWS V14.01,2013-05-21 01:13:00,
2013-05-20 21:15:00,72.3,60.8,29.88,ESE,112,1.1,1.6,67,0.00,,---,0.00,VWS V14.01,2013-05-21 01:15:00,
2013-05-20 21:18:00,72.3,60.8,29.88,East,90,1.3,2.2,67,0.00,,---,0.00,VWS V14.01,2013-05-21 01:18:00,
2013-05-20 21:20:00,72.3,60.8,29.88,East,90,2.2,2.2,67,0.00,,---,0.00,VWS V14.01,2013-05-21 01:20:00,
2013-05-20 21:23:00,72.3,61.2,29.88,ESE,112,2.0,2.7,68,0.00,,---,0.00,VWS V14.01,2013-05-21 01:23:00,
2013-05-20 21:25:00,72.3,60.8,29.88,East,90,1.3,2.7,67,0.00,,---,0.00,VWS V14.01,2013-05-21 01:25:00,
2013-05-20 21:28:00,72.1,60.6,29.88,East,90,1.1,1.6,67,0.00,,---,0.00,VWS V14.01,2013-05-21 01:28:00,
2013-05-20 21:30:00,72.1,60.6,29.88,East,90,0.0,1.6,67,0.00,,---,0.00,VWS V14.01,2013-05-21 01:30:00,
2013-05-20 21:33:00,72.1,61.0,29.88,East,90,0.0,0.0,68,0.00,,---,0.00,VWS V14.01,2013-05-21 01:33:00,
2013-05-20 21:35:00,72.0,60.8,29.88,East,90,0.0,0.0,68,0.00,,---,0.00,VWS V14.01,2013-05-21 01:35:00,
2013-05-20 21:38:00,72.0,60.8,29.88,East,90,0.0,0.9,68,0.00,,---,0.00,VWS V14.01,2013-05-21 01:38:00,
2013-05-20 21:40:00,72.0,60.4,29.88,ENE,68,0.0,1.3,67,0.00,,---,0.00,VWS V14.01,2013-05-21 01:40:00,
2013-05-20 21:43:00,72.0,60.4,29.88,ESE,112,0.9,0.9,67,0.00,,---,0.00,VWS V14.01,2013-05-21 01:43:00,
2013-05-20 21:45:00,72.0,60.4,29.88,East,90,1.6,1.6,67,0.00,,---,0.00,VWS V14.01,2013-05-21 01:45:00,
2013-05-20 21:48:00,72.0,61.2,29.88,ESE,112,1.1,3.1,69,0.00,,---,0.00,VWS V14.01,2013-05-21 01:48:00,
2013-05-20 21:50:00,72.0,60.8,29.88,ESE,112,0.0,3.1,68,0.00,,---,0.00,VWS V14.01,2013-05-21 01:50:00,
2013-05-20 21:53:00,71.8,60.7,29.88,ESE,112,0.0,0.9,68,0.00,,---,0.00,VWS V14.01,2013-05-21 01:53:00,
2013-05-20 21:55:00,71.6,60.5,29.88,ESE,112,0.0,0.9,68,0.00,,---,0.00,VWS V14.01,2013-05-21 01:55:00,
2013-05-20 21:58:00,71.4,60.7,29.88,East,90,0.0,1.3,69,0.00,,---,0.00,VWS V14.01,2013-05-21 01:58:00,
2013-05-20 22:00:00,71.4,60.7,29.88,East,90,1.3,1.6,69,0.00,,---,0.00,VWS V14.01,2013-05-21 02:00:00,
2013-05-20 22:04:00,71.4,60.7,29.88,East,90,1.1,1.6,69,0.00,,---,0.00,VWS V14.01,2013-05-21 02:04:00,
2013-05-20 22:05:00,71.2,61.0,29.88,ESE,112,0.0,1.6,70,0.00,,---,0.00,VWS V14.01,2013-05-21 02:05:00,
2013-05-20 22:09:00,71.2,61.0,29.88,ESE,112,0.0,1.3,70,0.00,,---,0.00,VWS V14.01,2013-05-21 02:09:00,
2013-05-20 22:10:00,71.1,60.8,29.88,ESE,112,0.0,1.3,70,0.00,,---,0.00,VWS V14.01,2013-05-21 02:10:00,
2013-05-20 22:14:00,71.1,60.8,29.88,SE,135,0.0,0.0,70,0.00,,---,0.00,VWS V14.01,2013-05-21 02:14:00,
2013-05-20 22:15:00,71.1,60.8,29.88,SE,135,0.0,0.0,70,0.00,,---,0.00,VWS V14.01,2013-05-21 02:15:00,
2013-05-20 22:19:00,70.9,61.0,29.88,SE,135,0.0,0.0,71,0.00,,---,0.00,VWS V14.01,2013-05-21 02:19:00,
2013-05-20 22:20:00,70.9,61.0,29.88,SE,135,0.0,0.0,71,0.00,,---,0.00,VWS V14.01,2013-05-21 02:20:00,
2013-05-20 22:24:00,70.7,60.8,29.88,SW,225,0.0,0.0,71,0.00,,---,0.00,VWS V14.01,2013-05-21 02:24:00,
2013-05-20 22:25:00,70.7,60.8,29.88,SW,225,0.0,0.0,71,0.00,,---,0.00,VWS V14.01,2013-05-21 02:25:00,
2013-05-20 22:29:00,70.7,60.8,29.88,WSW,248,0.0,0.0,71,0.00,,---,0.00,VWS V14.01,2013-05-21 02:29:00,
2013-05-20 22:30:00,70.7,60.8,29.88,WSW,248,0.0,0.0,71,0.00,,---,0.00,VWS V14.01,2013-05-21 02:30:00,
2013-05-20 22:34:00,70.7,61.2,29.88,WSW,248,0.0,0.0,72,0.00,,---,0.00,VWS V14.01,2013-05-21 02:34:00,
2013-05-20 22:35:00,70.7,61.6,29.88,WSW,248,0.0,0.0,73,0.00,,---,0.00,VWS V14.01,2013-05-21 02:35:00,
2013-05-20 22:39:00,70.7,61.2,29.88,WSW,248,0.0,0.0,72,0.00,,---,0.00,VWS V14.01,2013-05-21 02:39:00,
2013-05-20 22:40:00,70.7,61.2,29.88,WSW,248,0.0,0.0,72,0.00,,---,0.00,VWS V14.01,2013-05-21 02:40:00,
2013-05-20 22:44:00,70.5,61.5,29.88,SSE,158,0.0,0.0,73,0.00,,---,0.00,VWS V14.01,2013-05-21 02:44:00,
2013-05-20 22:45:00,70.5,61.8,29.88,SSE,158,0.0,0.0,74,0.00,,---,0.00,VWS V14.01,2013-05-21 02:45:00,
2013-05-20 22:49:00,70.3,61.7,29.88,SSE,158,0.0,0.0,74,0.00,,---,0.00,VWS V14.01,2013-05-21 02:49:00,
2013-05-20 22:50:00,70.2,61.9,29.88,SSE,158,0.0,0.0,75,0.00,,---,0.00,VWS V14.01,2013-05-21 02:50:00,
2013-05-20 22:54:00,70.0,61.7,29.88,SSE,158,0.0,0.0,75,0.00,,---,0.00,VWS V14.01,2013-05-21 02:54:00,
2013-05-20 22:55:00,69.8,61.9,29.88,SSE,158,0.0,0.0,76,0.00,,---,0.00,VWS V14.01,2013-05-21 02:55:00,
2013-05-20 22:59:00,69.6,61.7,29.88,SSE,158,0.0,0.0,76,0.00,,---,0.00,VWS V14.01,2013-05-21 02:59:00,
2013-05-20 23:00:00,69.6,61.7,29.88,SSE,158,0.0,0.0,76,0.00,,---,0.00,VWS V14.01,2013-05-21 03:00:00,
2013-05-20 23:04:00,69.4,61.9,29.85,SSE,158,0.0,0.0,77,0.00,,---,0.00,VWS V14.01,2013-05-21 03:04:00,
2013-05-20 23:05:00,69.4,61.9,29.85,SSE,158,0.0,0.0,77,0.00,,---,0.00,VWS V14.01,2013-05-21 03:05:00,
2013-05-20 23:09:00,69.1,61.6,29.85,WSW,248,0.0,0.0,77,0.00,,---,0.00,VWS V14.01,2013-05-21 03:09:00,
2013-05-20 23:10:00,69.1,61.6,29.85,NW,315,1.3,1.3,77,0.00,,---,0.00,VWS V14.01,2013-05-21 03:10:00,
2013-05-20 23:14:00,69.1,61.9,29.85,NW,315,0.0,1.6,78,0.00,,---,0.00,VWS V14.01,2013-05-21 03:14:00,
2013-05-20 23:15:00,69.1,62.3,29.85,NW,315,0.0,1.6,79,0.00,,---,0.00,VWS V14.01,2013-05-21 03:15:00,
2013-05-20 23:19:00,68.9,61.8,29.85,NW,315,0.0,0.0,78,0.00,,---,0.00,VWS V14.01,2013-05-21 03:19:00,
2013-05-20 23:20:00,68.9,61.8,29.85,NW,315,0.0,0.0,78,0.00,,---,0.00,VWS V14.01,2013-05-21 03:20:00,
2013-05-20 23:24:00,68.7,62.0,29.85,NW,315,0.0,0.0,79,0.00,,---,0.00,VWS V14.01,2013-05-21 03:24:00,
2013-05-20 23:25:00,68.7,62.0,29.85,NW,315,0.0,0.0,79,0.00,,---,0.00,VWS V14.01,2013-05-21 03:25:00,
2013-05-20 23:29:00,68.5,61.8,29.85,NW,315,0.0,0.0,79,0.00,,---,0.00,VWS V14.01,2013-05-21 03:29:00,
2013-05-20 23:30:00,68.4,61.6,29.85,NW,315,0.0,0.0,79,0.00,,---,0.00,VWS V14.01,2013-05-21 03:30:00,
2013-05-20 23:34:00,68.5,62.1,29.85,West,270,0.0,0.0,80,0.00,,---,0.00,VWS V14.01,2013-05-21 03:34:00,
2013-05-20 23:35:00,68.5,62.5,29.85,West,270,0.0,0.0,81,0.00,,---,0.00,VWS V14.01,2013-05-21 03:35:00,
2013-05-20 23:39:00,68.4,62.3,29.85,West,270,0.0,0.0,81,0.00,,---,0.00,VWS V14.01,2013-05-21 03:39:00,
2013-05-20 23:40:00,68.2,62.1,29.85,West,270,0.0,0.0,81,0.00,,---,0.00,VWS V14.01,2013-05-21 03:40:00,
2013-05-20 23:44:00,68.2,62.1,29.85,West,270,0.0,0.0,81,0.00,,---,0.00,VWS V14.01,2013-05-21 03:44:00,
2013-05-20 23:45:00,68.2,62.1,29.85,West,270,0.0,0.0,81,0.00,,---,0.00,VWS V14.01,2013-05-21 03:45:00,
2013-05-20 23:49:00,68.0,62.3,29.85,West,270,0.0,0.0,82,0.00,,---,0.00,VWS V14.01,2013-05-21 03:49:00,
2013-05-20 23:50:00,68.0,62.3,29.85,West,270,0.0,0.0,82,0.00,,---,0.00,VWS V14.01,2013-05-21 03:50:00,
2013-05-20 23:54:00,67.8,62.1,29.85,West,270,0.0,0.0,82,0.00,,---,0.00,VWS V14.01,2013-05-21 03:54:00,
2013-05-20 23:55:00,67.8,62.1,29.85,East,90,0.0,0.0,82,0.00,,---,0.00,VWS V14.01,2013-05-21 03:55:00,
2013-05-20 23:59:00,67.6,62.3,29.85,East,90,0.0,1.6,83,0.00,,---,0.00,VWS V14.01,2013-05-21 03:59:00,